User: anonymous   Login
Location: Narrabri
(30.3170°S, 149.7830°E)
Time: 16:11:35
(UTC+11:00)
Language:

XW-2D - Orbit

View from above orbital plane
View from above orbital plane
View from above satellite
View from above satellite

Ground track
Ground track

The orbit data is extracted from the following two-line orbital elements,

1 40907U 15049J   18019.81625940  .00000663  00000-0  38821-4 0  9994
2 40907  97.4551  25.7860 0014504 175.7656 184.3702 15.15115388129030
Epoch (UTC): 19 January 2018 19:35:24
Eccentricity: 0.0014504
inclination: 97.4551°
perigee height: 510 km
apogee height: 530 km
right ascension of ascending node: 25.7860°
argument of perigee: 175.7656°
revolutions per day: 15.15115388
mean anomaly at epoch: 184.3702°
orbit number at epoch: 12903

The dashed part of the orbit path shows where the satellite is in the earth's shadow,  

DLR